Simultaneous Nadir Overpasses (SNOs) Predictions

Prediction of SNOs between AQUA and NPP Satellite Orbit:

Table of predicted SNOs for the next 14.0 days since TLE Epoch: 1/23/2015
Index Date (AQUA) Time (AQUA) Lat,Lon (AQUA) SZA (AQUA ) Date (NPP) Time (NPP) Lat,Lon (NPP) SZA (NPP ) Distance(km) Time Diff (sec)
1 01/24/2015 17:47:49 57.38, 130.03 134.43 01/24/2015 17:46:38 57.39, 130.05 134.53 1.21 71
2 01/24/2015 18:35:08 -64.87, -56.93 52.37 01/24/2015 18:35:11 -64.87, -56.92 52.38 0.47 3
3 01/24/2015 19:19:52 79.34, 143.83 112.34 01/24/2015 19:21:05 79.12, 144.93 112.14 33.45 73
4 01/27/2015 10:03:30 60.22,-112.32 131.34 01/27/2015 10:02:36 60.23,-112.29 131.41 1.52 54
5 01/27/2015 10:51:19 -65.94, 59.96 53.95 01/27/2015 10:51:40 -65.93, 59.93 53.97 1.35 21
6 01/30/2015 02:19:28 62.09, 4.89 129.02 01/30/2015 02:18:52 62.09, 4.90 129.07 0.34 36
7 01/30/2015 03:07:21 -67.52, 177.51 56.11 01/30/2015 03:08:00 -67.52, 177.49 56.15 0.88 39
8 02/01/2015 18:35:15 64.53, 122.78 126.07 02/01/2015 18:34:57 64.54, 122.80 126.08 1.46 18
9 02/01/2015 19:23:15 -69.50, -64.18 58.73 02/01/2015 19:24:12 -69.51, -64.13 58.81 2.08 57
10 02/04/2015 10:04:05 -58.47, 66.55 49.03 02/04/2015 10:02:52 -58.47, 66.54 48.91 0.74 73
11 02/04/2015 10:51:16 66.13,-119.83 123.84 02/04/2015 10:51:17 66.13,-119.81 123.83 0.82 1




NCC Satellite Simultaneous Nad
